Camp Pendleton MCAS (Munn Field) Airport Oceanside US
ICAO: KNFG
IATA: NFG
Category: Medium
Scheduled Services: No

Elevation: 78 ft
TransAlt. 18000 ft.

Airport Communications:
SOCAL APP/DEP:127.3
APP/DEP:128.45
ATIS:26.76
CLNC DEL:126.2
GND:128.775
MCB RANGE CON:123.2
BASE OPS:26.5
PMSV METRO:34.24
TWR:128.775

KNFG Zoom In..

If you have problems with the map follow the link
https://www.worldairports.se/pages/airport.php?
ICAO=KNFG

Runways:

(A) RW 03 length 6005 ft width 200 ft
---- / hdg 31

(B) RW 21 length 6005 ft width 200 ft
---- / hdg 211

Location; KNFG
Day. 19 / Time. 12.55 Zulu
* Altimeter: 30.03
* Temperature: 05° c. 41°f.
* Wind from: 050° Speed 03 kn.
Dewpoint: 02° c.
Visibility: 10 Statute Miles.
Clouds: Clear (automated report).

KNFG 191255Z AUTO 05003KT 10SM CLR 05/02 A3003 RMK AO2 SLP168 T00500022


Wind From 050°
Speed 03 kn.

 
 
jpsmedia.com for Web Design worldairports.se 2018   terms of use